[[{"header":{"parameterUnit":"m.s-1","parameterCategory":1,"la1":30.2991,"la2":30.254,"lo1":-89.0895,"lo2":-89.0444,"dy":0.0017,"dx":0.0017,"nx":28,"ny":28,"refTime":"2024-06-23T09:00:00:Z","depth":0,"parameterNumber":2,"parameterNumberName":"U-component_of_WINDS"},"data":[0,0,0,0,0,0,0,0,0,0,0,0,0,0,0,0,0,0,0,0,0,0,0,0,0,0,0,0,0,0,0,0,0,0,0,0,0,0,0,0,0,0,0,0,0,0,0,0,0,0,0,0,0,0,0,0,0,0,1.261,1.2611,0,1.2687,1.2688,1.2689,1.269,1.2689,1.2688,1.2687,1.2767,1.277,1.2773,0,0,0,0,0,0,0,0,0,0,0,0,0,1.2464,1.2467,1.261,1.2611,1.2612,1.2687,1.2688,1.2689,1.269,1.2689,1.2687,1.2686,1.2766,1.2769,1.2773,0,0,0,0,0,0,0,0,0,0,0,0,0,1.2533,1.2468,1.261,1.2621,1.2623,1.2687,1.2688,1.2689,1.269,1.2689,1.2687,1.2686,1.2765,1.2769,1.2774,1.2831,0,0,1.2787,1.2789,0,0,0,0,0,0,0,0,1.2529,1.2538,1.2619,1.2621,1.2623,1.2677,1.2666,1.2737,1.269,1.2665,1.2687,1.2685,1.2738,1.2745,1.2763,1.2835,1.2838,1.2788,1.2791,1.2793,1.2794,0,0,0,0,0,0,0,1.2524,1.2535,1.264,1.262,1.2622,1.2623,1.2631,1.2679,1.2709,1.2667,1.2667,1.2676,1.2739,1.2758,1.2764,1.284,1.2788,1.2792,1.2795,1.2796,1.2963,1.2965,0,0,0,0,0,0,1.2517,1.2531,1.2638,1.2643,1.2571,1.2627,1.2636,1.2661,1.2708,1.2714,1.2677,1.2676,1.2751,1.2759,1.2767,1.2837,1.2793,1.2797,1.2799,1.2961,1.2963,1.2965,0,0,0,0,0,0,1.2514,1.2527,1.2635,1.2587,1.2601,1.2631,1.2659,1.2664,1.2683,1.2716,1.2722,1.2691,1.275,1.2761,1.2815,1.284,1.2799,1.2803,1.2959,1.2962,1.2964,1.2978,0,0,0,0,0,0,1.251,1.2525,1.2547,1.2587,1.2603,1.2681,1.2661,1.2666,1.269,1.2689,1.2731,1.2736,1.275,1.2808,1.282,1.2846,1.2807,1.2957,1.2961,1.2964,1.2976,1.2981,1.2986,0,0,0,0,0,1.2504,1.2548,1.2548,1.2561,1.2631,1.2683,1.2692,1.2706,1.2692,1.2715,1.2736,1.2735,1.2836,1.2814,1.2827,1.2855,1.2956,1.296,1.2963,1.2974,1.298,1.2985,0,0,0,0,0,0,1.251,1.2554,1.2554,1.2613,1.2644,1.2683,1.2711,1.2713,1.2749,1.2746,1.2763,1.2773,1.2826,1.2846,1.2821,1.2913,1.2894,1.2901,1.2898,1.2904,1.2909,1.2902,1.281,0,0,0,0,0,1.2519,1.2556,1.2592,1.264,1.2656,1.2681,1.2704,1.2712,1.2746,1.2759,1.2784,1.2817,1.2856,1.2881,1.2919,1.2979,1.2988,1.3005,1.301,1.3013,1.3018,1.3051,1.3059,1.2978,1.2978,1.2978,0,0,1.2536,1.2564,1.2587,1.2642,1.2667,1.2706,1.2692,1.2734,1.2763,1.2765,1.2818,1.2838,1.2875,1.2933,1.2959,1.2951,1.3043,1.3018,1.3021,1.3024,1.3056,1.3064,1.307,1.298,1.298,1.2979,0,0,1.2586,1.2612,1.2654,1.268,1.2718,1.2735,1.2745,1.2784,1.2797,1.285,1.2853,1.2888,1.2955,1.2981,1.3004,1.3065,1.3065,1.3077,1.3102,1.3134,1.314,1.3146,1.3167,1.3175,1.3082,1.3083,1.3083,0,1.2602,1.2661,1.2676,1.2718,1.2742,1.2746,1.2789,1.2814,1.2863,1.2879,1.2869,1.2953,1.2979,1.3042,1.3057,1.3076,1.3088,1.3072,1.3138,1.3144,1.315,1.317,1.3178,1.3084,1.3084,1.3083,1.3083,0,1.2678,1.2719,1.2749,1.2796,1.2824,1.2866,1.2888,1.2914,1.2921,1.2938,1.2992,1.3023,1.3067,1.3083,1.309,1.3147,1.3141,1.3135,1.3116,1.3158,1.3178,1.3186,1.3085,1.3085,1.3085,1.3084,0,0,1.2733,1.2789,1.2799,1.2821,1.2864,1.2896,1.2938,1.2981,1.3003,1.3037,1.3073,1.313,1.3124,1.315,1.316,1.3188,1.3234,1.3178,1.3179,1.3186,1.3298,1.3302,1.331,1.3234,1.3236,1.3237,1.3295,0,1.2788,1.2863,1.2879,1.2944,1.2982,1.2987,1.3024,1.3055,1.3073,1.3107,1.3127,1.3167,1.3157,1.3172,1.32,1.3222,1.3256,1.3218,1.3268,1.3269,1.3257,1.3321,1.3325,1.3377,1.3302,1.3304,1.3305,0,1.2861,1.2896,1.2966,1.3004,1.302,1.3053,1.3094,1.3127,1.3162,1.3173,1.3202,1.3209,1.3254,1.3234,1.3296,1.327,1.3291,1.3305,1.3307,1.3311,1.3288,1.3325,1.3394,1.3402,1.3317,1.3316,1.3315,0,1.2893,1.2958,1.3008,1.3026,1.3072,1.3095,1.3116,1.3149,1.3174,1.321,1.3226,1.3267,1.3289,1.332,1.3338,1.3323,1.3399,1.3381,1.3409,1.3408,1.3423,1.3422,1.3495,1.3439,1.3439,1.3439,1.3439,0,1.2951,1.2993,1.3023,1.3053,1.31,1.3118,1.3164,1.3185,1.3215,1.3249,1.3257,1.3289,1.3312,1.3347,1.3362,1.341,1.3421,1.3431,1.3434,1.3429,1.3428,1.3442,1.3439,1.3441,1.3441,1.344,1.344,0,1.2994,1.3016,1.307,1.311,1.3121,1.3154,1.3187,1.3217,1.3236,1.3279,1.3291,1.3319,1.3362,1.3383,1.3436,1.3446,1.35,1.3502,1.3488,1.3489,1.3516,1.3512,1.36,1.3612,1.3549,1.355,1.355,0,1.3029,1.3061,1.3104,1.3128,1.3149,1.3187,1.3212,1.3232,1.3258,1.33,1.3325,1.3368,1.3402,1.347,1.3496,1.3536,1.3538,1.3566,1.3544,1.3538,1.3537,1.3534,1.3537,1.3569,1.357,1.357,1.3571,0,1.3088,1.3098,1.3134,1.3174,1.3204,1.3237,1.3269,1.3288,1.3313,1.3342,1.3385,1.3412,1.3466,1.3508,1.3551,1.3572,1.3575,1.3578,1.3586,1.3581,1.3571,1.3576,1.3497,1.3575,1.3575,1.3575,1.3574,1.3574,1.3127,1.3156,1.3191,1.3231,1.3258,1.3288,1.3318,1.334,1.3376,1.3421,1.3431,1.3477,1.3511,1.3569,1.3591,1.3627,1.3621,1.3634,1.3637,1.3639,1.364,1.3567,1.3635,1.3635,1.3635,1.3635,1.3635,0,1.3186,1.3209,1.3246,1.3291,1.3323,1.3324,1.336,1.3386,1.3426,1.3458,1.3493,1.3542,1.3583,1.3613,1.3654,1.3678,1.368,1.3688,1.3686,1.369,1.3643,1.3631,1.3685,1.3685,1.3685,1.3685,1.3685,1.3685,1.322,1.3269,1.3283,1.3345,1.3368,1.3412,1.3432,1.346,1.3486,1.3541,1.3575,1.3594,1.3625,1.3669,1.3707,1.3715,1.3729,1.3736,1.3744,1.3699,1.3694,1.3689,1.3677,1.374,1.374,1.3788,1.3788,1.3788]},{"header":{"parameterUnit":"m.s-1","parameterCategory":1,"la1":30.2991,"la2":30.254,"lo1":-89.0895,"lo2":-89.0444,"dy":0.0017,"dx":0.0017,"nx":28,"ny":28,"refTime":"2024-06-23T09:00:00:Z","depth":0,"parameterNumber":3,"parameterNumberName":"V-component_of_WINDS"},"data":[0,0,0,0,0,0,0,0,0,0,0,0,0,0,0,0,0,0,0,0,0,0,0,0,0,0,0,0,0,0,0,0,0,0,0,0,0,0,0,0,0,0,0,0,0,0,0,0,0,0,0,0,0,0,0,0,0,0,4.1072,4.1072,0,4.103,4.103,4.1029,4.0993,4.0992,4.0992,4.0991,4.0945,4.0945,4.0944,0,0,0,0,0,0,0,0,0,0,0,0,0,4.1117,4.1117,4.1072,4.1072,4.1071,4.103,4.103,4.1029,4.0993,4.0992,4.0992,4.0991,4.0946,4.0945,4.0944,0,0,0,0,0,0,0,0,0,0,0,0,0,4.1089,4.1116,4.1072,4.1048,4.1045,4.103,4.103,4.1029,4.0993,4.0992,4.0992,4.0991,4.0946,4.0945,4.0943,4.0948,0,0,4.094,4.0939,0,0,0,0,0,0,0,0,4.109,4.1087,4.1052,4.105,4.1047,4.1016,4.1029,4.1002,4.0993,4.1013,4.0991,4.0991,4.0969,4.0966,4.0959,4.0946,4.0944,4.094,4.0939,4.0938,4.0938,0,0,0,0,0,0,0,4.1092,4.1089,4.1055,4.1052,4.1048,4.1038,4.1033,4.1023,4.0995,4.1011,4.1008,4.1004,4.0968,4.0961,4.0958,4.0943,4.094,4.0938,4.0938,4.0937,4.093,4.093,0,0,0,0,0,0,4.1098,4.1091,4.1057,4.1054,4.1068,4.1038,4.1033,4.1026,4.0995,4.0989,4.1004,4.1002,4.0963,4.096,4.0956,4.0958,4.0938,4.0937,4.0936,4.0929,4.093,4.093,0,0,0,0,0,0,4.11,4.1096,4.1058,4.1072,4.1066,4.1038,4.1031,4.1026,4.1019,4.099,4.0984,4.1003,4.0963,4.0958,4.095,4.0956,4.0936,4.0935,4.0929,4.0929,4.093,4.0963,0,0,0,0,0,0,4.1101,4.1096,4.1099,4.1072,4.1066,4.1054,4.1032,4.1026,4.1017,4.1014,4.0987,4.0982,4.0962,4.0952,4.0949,4.0954,4.0934,4.0928,4.0929,4.093,4.0962,4.0965,4.0968,0,0,0,0,0,4.1103,4.1109,4.1099,4.1095,4.1068,4.1055,4.1051,4.1028,4.1018,4.1019,4.1001,4.0983,4.0957,4.0952,4.0948,4.0953,4.0927,4.0929,4.093,4.096,4.0965,4.0968,0,0,0,0,0,0,4.1136,4.1105,4.1094,4.1092,4.1076,4.1049,4.105,4.1034,4.102,4.1018,4.099,4.0984,4.0979,4.0965,4.096,4.0955,4.0939,4.094,4.0964,4.0968,4.0971,4.0974,4.0933,0,0,0,0,0,4.1144,4.1137,4.111,4.111,4.1103,4.1078,4.1071,4.1056,4.1038,4.1031,4.1012,4.0994,4.0982,4.0974,4.0961,4.096,4.0952,4.0961,4.0964,4.0967,4.0968,4.0965,4.0968,4.0935,4.0935,4.0935,0,0,4.1158,4.1141,4.1138,4.1117,4.1103,4.1095,4.1073,4.1065,4.1059,4.1029,4.1021,4.1006,4.0985,4.098,4.0977,4.0968,4.0975,4.0969,4.0972,4.097,4.0966,4.0969,4.0972,4.0936,4.0935,4.0935,0,0,4.1181,4.1167,4.1166,4.1153,4.1133,4.1116,4.1116,4.109,4.108,4.1071,4.1048,4.104,4.102,4.1005,4.0995,4.1012,4.0994,4.1009,4.1026,4.1023,4.1026,4.1028,4.1033,4.1035,4.1009,4.1009,4.1009,0,4.1201,4.119,4.1167,4.1161,4.1152,4.1127,4.1124,4.1112,4.1088,4.1082,4.1073,4.1047,4.1031,4.1022,4.1026,4.1019,4.1017,4.1011,4.1027,4.1029,4.1031,4.1035,4.1037,4.1011,4.1011,4.1011,4.1011,0,4.1215,4.1208,4.1209,4.1187,4.1179,4.1175,4.1151,4.1144,4.1129,4.1113,4.1104,4.1084,4.1066,4.1063,4.1048,4.1051,4.1046,4.1033,4.1017,4.1036,4.104,4.1041,4.1014,4.1013,4.1012,4.1012,0,0,4.1257,4.1223,4.1224,4.1214,4.119,4.1183,4.1177,4.1161,4.1155,4.114,4.1133,4.1117,4.1104,4.1093,4.1076,4.1074,4.1087,4.106,4.1059,4.1065,4.1088,4.1097,4.11,4.1076,4.1076,4.1076,4.1089,0,4.1274,4.1264,4.1244,4.1239,4.1231,4.1207,4.1202,4.1185,4.117,4.116,4.1142,4.1131,4.1116,4.1109,4.1106,4.1086,4.1091,4.1085,4.1068,4.1068,4.1073,4.1102,4.1112,4.1125,4.1091,4.1091,4.1091,0,4.1293,4.128,4.1275,4.1251,4.1247,4.1243,4.1226,4.1217,4.1198,4.1187,4.1175,4.1156,4.1148,4.1134,4.1121,4.1117,4.1109,4.1098,4.1098,4.1095,4.108,4.1098,4.1129,4.1131,4.1093,4.1093,4.1093,0,4.1322,4.1304,4.1298,4.129,4.1262,4.126,4.1248,4.1228,4.122,4.1205,4.1198,4.1182,4.1173,4.116,4.1137,4.113,4.1126,4.1111,4.1115,4.1116,4.1115,4.1115,4.1144,4.1112,4.1112,4.1112,4.1111,0,4.1343,4.1341,4.1311,4.1307,4.1304,4.128,4.1277,4.1262,4.1245,4.1237,4.1215,4.1208,4.1179,4.1168,4.115,4.1141,4.1137,4.1127,4.1122,4.1128,4.1129,4.1122,4.112,4.1112,4.1112,4.1112,4.1112,0,4.1375,4.1355,4.1347,4.1322,4.1315,4.1314,4.1291,4.1286,4.127,4.126,4.1256,4.123,4.1216,4.1193,4.1171,4.1159,4.1153,4.1146,4.116,4.1157,4.1163,4.1162,4.1187,4.1188,4.1156,4.1156,4.1157,0,4.1389,4.1387,4.1362,4.1356,4.1345,4.1335,4.1326,4.1303,4.1294,4.1273,4.127,4.1254,4.1241,4.1219,4.1197,4.1181,4.1172,4.1181,4.1169,4.1175,4.117,4.1171,4.117,4.1184,4.1185,4.1185,4.1185,0,4.1416,4.1406,4.1395,4.1381,4.1371,4.1359,4.1344,4.134,4.1313,4.1305,4.1291,4.1281,4.1259,4.1244,4.1224,4.121,4.1193,4.119,4.119,4.1196,4.1204,4.1198,4.1167,4.1189,4.1188,4.1188,4.1188,4.1188,4.1438,4.1435,4.1417,4.1405,4.1393,4.138,4.1374,4.1357,4.1346,4.1328,4.1314,4.1301,4.1281,4.1253,4.124,4.1228,4.122,4.1221,4.122,4.1221,4.1223,4.1207,4.1225,4.1224,4.1224,4.1224,4.1224,0,4.1463,4.1451,4.144,4.1422,4.1412,4.1399,4.1382,4.1375,4.1364,4.1348,4.1335,4.1318,4.1303,4.128,4.1263,4.1258,4.1249,4.1254,4.1254,4.125,4.1231,4.1233,4.1261,4.1261,4.1261,4.1261,4.1261,4.1261,4.1475,4.1469,4.1457,4.1443,4.143,4.1418,4.141,4.1398,4.1384,4.1368,4.1356,4.1341,4.1322,4.1303,4.1288,4.1281,4.1275,4.1282,4.1273,4.1255,4.1252,4.1249,4.125,4.1281,4.1281,4.1293,4.1293,4.1293]}]]